Change the Weather History Date:

Monday, January 5, 2015

  Actual Average Record
Temperature  
Mean Temperature 50 °F 46 °F  
Max Temperature 68 °F 59 °F 74 °F (2012)
Min Temperature 32 °F 34 °F 19 °F (1960)
Degree Days  
Heating Degree Days 15 19  
Month to date heating degree days 107 95  
Since 1 July heating degree days 775 1219  
Cooling Degree Days 0 0  
Month to date cooling degree days 0 0  
Year to date cooling degree days 0 0  
Moisture  
Dew Point 32 °F    
Average Humidity 59    
Maximum Humidity 89    
Minimum Humidity 29    
Precipitation  
Precipitation 0.00 in 0.08 in 0.86 in (1957)
Month to date precipitation 0.00 0.42  
Year to date precipitation 0.00 0.42  
Since 1 July precipitation 5.72 4.41  
Sea Level Pressure  
Sea Level Pressure 30.31 in    
Wind  
Wind Speed 4 mph (ENE)    
Max Wind Speed 18 mph    
Max Gust Speed 22 mph    
Visibility 10 miles    
Events      
T = Trace of Precipitation, MM = Missing Value Source: NWS Daily Summary

Daily Weather History Graph

Daily Weather History Graph

Search for Another Location

Airport or City:

Trip Planner

Search our weather history database for the weather conditions in past years. The results will help you decide how hot, cold, wet, or windy it might be!

Date:

Astronomy

Jan. 05, 2015 Rise Set
Actual Time 7:12 AM PST 5:03 PM PST
Civil Twilight 6:44 AM PST 5:31 PM PST
Nautical Twilight 6:12 AM PST 6:03 PM PST
Astronomical Twilight 5:41 AM PST 6:34 PM PST
Moon 5:59 PM PST (1/5) 7:16 AM PST (1/5)
Length of Visible Light 10h 46m
Length of Day
9h 50m
Full, 100% of the Moon is Illuminated
Jan 5
Full
Jan 13
Last Quarter
Jan 20
New
Jan 26
First Quarter
Feb 3
Full

Hourly Weather History & Observations

Time (PST) Temp. Windchill Dew Point Humidity Pressure Visibility Wind Dir Wind Speed Gust Speed Precip Events Conditions
12:53 AM 39.0 °F - 30.9 °F 73% 30.37 in 9.0 mi Calm Calm - N/A   Clear
1:53 AM 36.0 °F 33.3 °F 30.9 °F 82% 30.37 in 10.0 mi ENE 3.5 mph - N/A   Clear
2:53 AM 36.0 °F - 30.0 °F 79% 30.37 in 10.0 mi Calm Calm - N/A   Clear
3:53 AM 37.0 °F 34.5 °F 30.0 °F 76% 30.37 in 10.0 mi NE 3.5 mph - N/A   Clear
4:53 AM 34.0 °F - 28.9 °F 82% 30.36 in 10.0 mi Calm Calm - N/A   Clear
5:53 AM 32.0 °F - 28.0 °F 85% 30.36 in 10.0 mi Calm Calm - N/A   Clear
6:53 AM 33.1 °F - 28.0 °F 82% 30.37 in 10.0 mi Calm Calm - N/A   Clear
7:53 AM 33.1 °F - 30.0 °F 89% 30.38 in 6.0 mi Calm Calm - N/A   Clear
8:53 AM 39.0 °F - 30.9 °F 73% 30.39 in 10.0 mi Calm Calm - N/A   Clear
9:53 AM 44.1 °F 42.5 °F 33.1 °F 65% 30.38 in 10.0 mi WNW 3.5 mph - N/A   Clear
10:53 AM 50.0 °F - 34.0 °F 54% 30.35 in 10.0 mi Calm Calm - N/A   Clear
11:53 AM 57.0 °F - 33.1 °F 40% 30.30 in 10.0 mi NNW 5.8 mph - N/A   Clear
12:53 PM 61.0 °F - 35.1 °F 38% 30.27 in 10.0 mi NNW 8.1 mph - N/A   Clear
1:53 PM 64.9 °F - 35.1 °F 33% 30.24 in 10.0 mi NNW 5.8 mph - N/A   Clear
2:53 PM 66.9 °F - 33.1 °F 28% 30.23 in 10.0 mi East 10.4 mph - N/A   Clear
3:53 PM 66.0 °F - 34.0 °F 30% 30.22 in 10.0 mi East 11.5 mph - N/A   Clear
4:53 PM 62.1 °F - 36.0 °F 38% 30.22 in 10.0 mi East 4.6 mph - N/A   Clear
5:53 PM 55.0 °F - 32.0 °F 42% 30.24 in 10.0 mi ESE 10.4 mph - N/A   Clear
6:53 PM 53.1 °F - 30.9 °F 43% 30.26 in 10.0 mi ESE 11.5 mph - N/A   Clear
7:53 PM 51.1 °F - 33.1 °F 50% 30.27 in 10.0 mi ESE 6.9 mph - N/A   Clear
8:53 PM 48.0 °F - 30.9 °F 52% 30.27 in 10.0 mi SSE 8.1 mph - N/A   Clear
9:53 PM 44.1 °F 40.1 °F 32.0 °F 63% 30.27 in 10.0 mi SSE 6.9 mph - N/A   Clear
10:53 PM 41.0 °F - 33.1 °F 73% 30.26 in 10.0 mi Calm Calm - N/A   Clear
11:53 PM 42.1 °F - 33.1 °F 70% 30.25 in 10.0 mi Calm Calm - N/A   Clear